Probability
0 0 2 3 2 1 0 0 0 0 0 0 0 1 2 3 4 5 5 7 9 8 7 8 11 11 11 12 12 10 10 8 6 6 6 6 8 7 6 7 9 9 7 6 5 3 4 6 8
0 1 3 3 2 0 0 0 0 0 0 0 0 1 3 3 4 5 5 6 7 5 4 7 12 14 13 13 13 11 10 8 6 5 5 6 7 8 7 7 8 8 7 6 4 3 4 6 7
0 1 3 3 1 0 0 0 0 0 0 0 1 2 3 3 4 5 5 5 5 4 4 9 16 17 15 13 13 12 10 6 4 4 5 5 7 8 8 8 8 7 7 6 4 3 3 4 6
0 0 1 1 0 0 0 0 0 0 0 1 2 2 2 2 3 5 6 6 6 5 6 13 19 18 16 13 13 13 10 5 3 4 4 5 6 8 9 9 8 7 6 6 6 4 3 3 4
0 0 0 0 0 0 0 0 0 0 0 1 2 2 2 2 3 4 5 5 5 5 5 11 17 19 17 15 13 12 10 6 3 3 4 5 6 7 8 8 7 7 6 7 7 5 4 3 3
0 0 0 0 0 0 0 0 0 0 0 1 2 2 2 3 3 3 3 3 4 4 4 7 13 17 18 17 14 11 8 5 4 4 4 5 6 7 7 7 6 6 6 6 6 5 4 4 3
0 0 0 0 0 0 0 1 1 1 0 1 1 1 2 3 3 3 3 2 2 4 4 6 10 14 15 15 14 11 7 4 4 4 4 5 6 6 5 5 6 7 7 6 5 4 4 3 3
0 0 0 0 0 0 1 2 2 1 0 0 0 1 2 2 2 3 3 2 2 3 5 6 8 10 10 11 12 9 6 4 4 4 4 4 4 4 4 4 5 6 7 6 4 3 3 3 3
0 0 1 1 0 1 2 3 2 1 0 0 0 1 1 1 1 1 3 3 2 3 5 6 7 7 7 7 7 6 4 3 4 3 2 2 3 3 3 3 4 5 6 6 5 4 3 3 3
0 0 1 1 0 1 2 2 1 0 0 0 1 2 1 1 1 1 3 3 3 3 5 6 6 6 6 6 6 5 3 3 3 2 1 1 2 3 3 3 3 4 5 5 4 3 3 3 3
0 0 1 1 0 1 1 1 0 0 0 1 2 2 1 1 2 3 3 3 3 3 4 6 6 6 6 7 8 7 5 4 3 1 0 1 2 3 3 4 4 4 4 3 2 2 3 3 3
0 0 0 0 0 0 0 0 0 0 0 1 2 2 1 1 2 3 2 2 2 3 4 6 6 6 6 7 9 9 7 6 3 1 1 1 2 3 4 5 5 5 4 2 1 1 2 3 3
0 0 0 0 0 0 0 0 0 0 0 1 2 3 1 1 2 2 1 0 1 2 4 6 6 6 5 6 7 7 6 5 4 3 2 2 2 3 5 6 6 5 4 3 2 1 1 3 3
0 0 0 0 0 0 0 0 0 0 0 1 2 3 2 1 1 1 0 0 0 1 3 5 6 5 5 5 5 5 4 3 3 4 3 2 3 3 4 6 6 4 3 3 3 2 2 2 3
0 0 0 0 0 0 0 0 0 0 0 1 2 3 3 2 1 0 0 0 0 0 1 4 5 4 4 5 4 4 4 2 2 3 3 4 4 3 3 5 5 4 3 3 3 3 2 2 3
0 0 0 0 0 0 0 0 0 0 0 1 2 3 3 3 2 1 0 0 0 0 1 3 4 4 3 4 4 4 4 2 1 1 2 4 5 3 2 2 4 4 3 3 3 3 3 3 2
0 0 0 0 0 0 0 0 0 0 0 1 2 3 3 3 2 1 0 0 0 0 1 2 3 3 3 3 4 5 4 3 2 1 2 3 4 3 1 1 2 3 3 3 3 3 3 3 2
0 0 0 0 0 0 0 0 0 0 0 1 2 3 3 3 2 1 0 0 1 1 1 2 2 3 3 3 4 5 4 3 2 2 2 3 2 1 0 0 1 3 3 3 3 3 3 3 3
0 0 0 0 0 0 0 0 0 0 0 1 2 3 3 3 2 1 0 0 1 2 2 2 1 2 3 3 4 5 4 2 2 2 2 1 1 0 0 0 1 2 3 3 3 3 3 3 3
0 0 0 0 0 0 0 0 0 0 0 1 2 3 3 3 2 1 0 0 1 2 3 2 1 2 3 3 3 4 4 3 3 2 1 0 0 0 0 0 0 1 3 3 3 3 3 3 3
0 0 0 0 0 0 0 0 0 0 0 0 1 3 3 3 3 1 1 1 0 1 2 2 1 1 2 1 1 3 3 3 2 1 0 0 0 0 0 0 0 1 2 3 3 3 3 3 3
0 0 0 0 0 0 0 0 0 0 0 0 1 2 2 3 3 3 2 2 1 0 1 2 2 1 0 0 0 1 3 3 1 0 0 0 0 0 0 0 0 1 2 3 3 3 3 3 3
0 0 0 0 0 0 0 0 0 0 0 0 0 1 1 1 2 3 3 3 2 1 0 1 1 1 0 0 0 1 2 2 1 0 0 0 0 0 0 0 0 1 2 3 3 3 3 3 3
0 0 0 0 0 0 0 0 0 0 0 0 0 0 0 0 1 2 2 2 2 1 1 0 0 1 1 0 0 0 1 2 2 1 0 0 0 0 0 0 0 1 2 3 3 3 3 3 3
0 0 0 0 0 0 0 0 0 0 0 0 0 0 0 0 0 1 1 1 1 1 1 0 0 0 0 0 0 0 1 2 2 1 0 0 0 0 0 0 0 0 1 2 3 3 3 3 3
0 0 0 0 0 0 0 0 0 0 0 0 0 0 0 0 0 0 0 0 0 1 1 0 0 0 0 0 0 0 0 1 1 1 0 0 0 0 0 0 0 0 0 1 2 3 3 3 3
0 0 0 0 0 0 0 0 0 0 0 0 0 0 0 0 0 0 0 0 0 0 0 0 0 0 0 0 0 0 0 0 0 0 0 0 0 0 0 0 0 0 0 0 1 2 2 2 1
0 0 0 0 0 0 0 0 0 0 0 0 0 0 0 0 0 0 0 0 0 0 0 0 0 0 0 0 0 0 0 0 0 0 0 0 0 0 0 0 0 0 0 0 0 1 1 1 0
0 0 0 0 0 0 0 0 0 0 0 0 0 0 0 0 0 0 0 0 0 0 0 0 0 0 0 0 0 0 0 0 0 0 0 0 0 0 0 0 0 0 0 0 0 0 0 0 0
0 0 0 0 0 0 0 0 0 0 0 0 0 0 0 0 0 0 0 0 0 0 0 0 0 0 0 0 0 0 0 0 0 0 0 0 0 0 0 0 0 0 0 0 0 0 0 0 0
Wind_Speed
13 11 6 2 3 4 6 4 1 1 1 4 5 4 4 6 5 5 3 4 5 5 6 6 6 6 6 6 6 6 5 6 6 5 5 5 5 5 6 6 6 6 5 5 5 5 6 6 6
10 8 3 3 4 5 4 3 1 1 2 3 4 3 3 5 7 6 3 4 5 6 6 6 6 6 6 6 6 6 5 5 6 5 5 4 5 5 6 6 6 6 5 5 5 5 5 5 5
10 7 3 3 4 4 2 1 3 2 2 2 2 3 4 4 5 4 3 3 5 6 6 6 6 5 5 6 6 6 5 5 5 5 4 4 4 5 5 5 5 6 5 5 5 4 4 5 4
4 3 3 3 7 4 2 2 2 2 2 2 2 2 4 6 4 4 4 4 5 6 5 5 5 5 4 5 6 6 6 5 5 5 4 3 3 3 4 5 5 5 5 5 5 4 4 4 4
3 3 3 5 8 4 1 1 2 1 0 1 1 0 3 5 6 6 4 4 5 5 5 4 5 4 4 4 5 5 5 5 4 4 4 3 3 3 4 4 4 5 4 4 5 4 3 3 3
3 3 4 6 6 3 1 1 1 2 1 2 2 1 3 4 5 4 4 3 4 5 4 3 3 4 3 3 4 4 4 4 4 3 4 3 3 3 3 4 4 4 4 4 4 4 4 3 2
3 3 5 5 4 3 0 2 1 1 2 2 3 2 2 4 5 4 3 3 4 4 4 3 2 2 2 3 3 3 4 4 4 3 3 3 1 2 2 3 3 3 4 4 4 3 4 2 2
3 3 5 5 4 2 2 2 3 3 2 3 3 1 1 2 3 3 2 3 3 3 3 4 3 2 1 1 2 3 4 4 4 4 4 3 2 1 2 2 3 3 3 3 3 3 3 2 2
3 3 4 3 2 1 3 2 2 2 2 2 2 2 2 2 3 2 2 2 2 3 3 3 3 2 2 1 1 2 2 3 3 2 3 3 1 0 1 2 2 2 2 2 2 2 2 2 2
2 3 3 3 4 3 2 2 2 2 2 2 1 2 2 1 1 1 1 1 2 2 2 2 3 2 2 2 1 0 0 1 1 1 1 1 1 1 1 2 1 2 2 2 2 2 2 1 1
1 2 2 3 5 3 2 3 2 3 4 2 1 1 1 0 0 1 2 1 1 1 2 2 2 2 1 1 1 1 0 0 0 1 1 2 1 1 1 1 0 1 1 1 2 2 1 1 0
2 2 3 2 4 3 3 3 4 5 4 2 1 0 1 2 2 2 1 1 2 1 1 2 2 2 1 1 1 1 1 0 0 0 1 1 1 1 1 0 0 0 0 1 1 1 2 2 1
3 2 2 2 3 3 3 4 4 5 4 2 1 2 3 2 2 1 1 1 1 1 1 1 1 2 1 1 1 1 1 1 1 1 1 1 1 1 1 0 0 0 1 1 1 2 2 2 2
1 1 3 4 5 4 4 5 4 5 2 2 3 3 3 2 2 2 1 1 2 1 1 1 0 1 1 0 1 1 1 1 1 1 1 1 1 1 1 1 1 1 1 1 1 2 2 1 1
3 3 4 5 5 2 3 5 6 4 3 4 3 3 3 2 1 2 2 2 2 1 1 1 0 1 0 0 0 1 1 1 1 1 1 1 1 1 1 1 1 1 1 1 1 2 1 2 1
4 4 3 3 4 3 3 6 4 3 3 4 4 3 3 2 2 2 2 1 1 1 1 1 1 1 0 0 0 0 1 1 1 2 1 1 1 1 1 1 1 1 1 1 1 1 1 2 1
3 4 4 3 4 3 5 6 4 3 3 4 3 3 2 2 2 2 1 1 1 1 1 1 1 1 1 0 0 0 0 1 1 1 2 2 2 2 1 1 1 1 1 1 2 1 1 1 2
3 4 5 4 3 4 6 7 6 4 5 4 3 3 3 3 3 2 1 0 1 1 0 1 1 1 1 1 0 1 0 0 0 0 1 2 1 2 2 1 2 1 0 1 1 2 2 1 1
5 6 8 6 3 5 8 9 8 6 5 5 3 3 3 3 2 1 1 0 1 1 1 0 1 0 1 0 0 0 1 1 1 0 1 2 2 1 1 1 2 1 1 1 1 1 2 1 1
7 8 7 5 3 6 8 11 9 7 6 4 3 3 3 2 1 1 0 0 1 1 1 1 1 1 1 1 1 1 1 1 1 1 0 1 2 1 1 1 1 1 1 1 1 1 1 1 1
7 6 5 6 7 7 6 8 6 5 5 4 4 3 3 2 2 1 1 0 1 1 1 1 1 1 1 1 1 0 0 1 1 1 1 1 2 2 1 1 1 1 1 1 1 1 1 1 1
6 3 5 6 4 4 3 6 4 4 5 4 3 2 2 2 2 1 1 1 1 1 1 1 1 1 1 1 1 1 1 2 2 2 1 1 1 2 1 1 1 1 1 1 2 2 1 1 2
4 5 6 7 5 6 5 5 6 3 4 4 3 2 2 1 1 1 1 1 1 1 0 0 1 1 1 1 2 2 2 2 1 1 1 1 1 2 1 1 1 1 1 1 1 1 2 1 1
3 5 6 4 2 5 6 5 5 3 4 3 2 1 1 0 1 1 1 2 1 0 0 0 1 1 1 2 2 2 3 3 2 2 2 2 1 2 2 1 1 1 1 2 2 2 2 2 2
2 1 1 2 2 5 2 3 5 2 1 2 2 1 1 1 1 2 2 2 1 0 0 0 1 1 2 2 2 2 3 3 4 3 3 2 2 2 2 1 2 2 2 2 2 2 3 2 2
3 2 1 3 3 3 2 5 3 1 2 2 2 1 1 1 1 2 3 2 2 1 1 1 1 2 2 2 2 2 3 3 2 3 3 2 2 3 3 2 2 2 2 3 2 2 3 2 2
2 2 2 2 4 4 5 3 2 2 3 2 2 1 1 1 1 2 2 3 2 1 1 1 1 2 2 2 2 2 3 3 3 3 2 2 3 3 3 3 2 2 3 3 2 2 2 2 2
2 1 1 2 3 4 5 3 3 2 2 1 1 0 1 1 1 2 2 2 2 2 2 2 1 2 2 2 3 2 2 3 3 3 3 3 3 3 2 2 3 3 3 3 2 2 2 2 2
3 2 3 3 3 3 4 3 1 1 0 1 1 0 1 1 1 1 2 2 2 2 2 2 2 2 2 2 3 2 2 2 2 3 3 3 3 3 3 3 3 3 3 3 2 3 3 3 2
2 3 3 3 4 3 3 5 2 2 1 1 2 1 2 2 1 2 2 2 2 2 2 2 2 2 2 2 2 2 2 2 3 3 3 3 3 2 2 3 3 3 3 3 3 4 3 3 2
Wind_Direction
301 281 262 256 242 229 235 232 234 26 15 19 10 8 13 21 27 90 108 65 73 91 101 91 59 55 50 45 46 48 51 52 48 55 58 58 60 58 57 55 54 54 55 59 63 68 71 74 74
296 286 265 237 239 230 231 220 191 21 43 34 13 7 27 63 64 86 71 51 69 83 92 86 60 53 53 51 46 45 49 51 49 51 55 57 61 58 58 57 56 54 52 52 60 65 66 68 73
281 272 254 231 231 237 220 67 77 75 59 33 24 26 21 52 60 71 68 56 67 73 87 89 65 52 55 55 52 44 45 49 48 45 48 59 61 63 61 57 55 56 51 49 54 59 63 64 69
279 244 242 240 239 245 261 62 46 76 74 37 32 63 76 52 45 71 70 50 58 69 75 90 69 53 55 55 54 46 42 42 43 40 43 52 60 58 59 60 59 57 53 49 45 50 58 60 56
250 243 225 230 242 247 315 26 17 343 33 50 61 3 86 61 67 72 66 51 55 58 65 87 69 52 54 58 53 45 39 36 35 39 42 51 56 60 61 58 58 53 48 45 40 39 46 50 38
255 242 230 226 230 222 180 40 315 2 8 19 2 312 88 84 69 55 51 47 55 52 59 73 82 56 45 54 52 44 36 31 30 31 36 42 48 54 60 55 58 53 43 40 36 32 28 36 19
280 257 246 245 240 230 112 33 4 351 349 356 346 332 99 71 58 52 39 37 47 51 52 45 76 87 49 39 42 40 32 28 21 24 27 20 29 53 59 55 52 48 39 32 30 25 15 6 348
304 281 252 248 244 242 63 22 10 0 345 5 1 340 72 52 52 52 40 31 39 48 52 37 21 44 35 51 40 36 32 30 25 23 14 10 12 39 52 50 52 40 31 25 20 17 360 342 308
290 260 253 271 280 3 51 356 9 9 349 341 345 353 36 53 42 42 39 19 15 27 37 39 15 23 16 342 37 50 36 41 31 25 8 354 340 21 72 58 42 20 10 4 2 359 345 339 285
264 243 266 337 343 18 26 348 342 310 279 285 336 33 67 72 60 359 338 347 356 1 5 36 14 359 15 348 14 92 64 77 41 24 14 346 327 336 45 43 26 7 1 353 343 331 319 323 284
275 256 289 337 353 9 346 317 307 278 276 288 325 49 59 93 323 298 299 312 325 334 349 19 25 350 7 345 2 2 7 50 42 15 355 356 349 1 46 60 49 23 2 340 322 312 291 289 299
263 292 289 310 335 333 310 295 287 270 287 327 14 135 260 253 250 250 275 305 316 340 343 11 30 3 343 356 1 6 332 331 52 346 6 10 358 349 340 19 350 304 306 306 294 291 298 309 302
236 251 288 303 293 290 291 277 282 274 286 309 264 226 232 254 273 272 271 295 293 319 331 9 15 352 338 9 336 23 3 343 346 11 14 14 13 321 304 302 282 279 289 301 291 284 293 307 311
248 258 260 255 254 260 265 269 260 256 265 251 226 233 220 240 260 270 274 277 269 256 289 344 7 339 308 22 355 17 19 357 355 17 2 5 16 341 304 310 306 301 295 296 288 285 297 298 310
227 245 250 239 234 234 280 269 238 233 248 253 240 232 213 227 259 270 261 255 249 236 246 293 280 314 259 83 7 24 27 15 360 343 351 8 11 343 316 296 290 299 318 314 310 297 302 297 306
225 234 246 227 219 209 239 264 242 201 232 250 240 237 221 215 244 263 261 264 276 256 231 248 292 316 147 93 65 61 29 19 5 348 341 350 353 332 326 295 280 287 321 315 303 291 283 286 288
218 247 251 246 210 220 228 258 253 225 234 252 239 233 229 219 237 254 251 264 293 276 223 201 196 190 142 79 49 74 55 33 350 353 347 329 335 325 350 324 288 297 322 297 293 304 274 278 298
247 263 266 258 232 256 255 258 257 238 238 242 239 231 232 228 236 241 230 243 318 321 66 144 126 167 120 103 65 65 44 321 280 2 343 321 317 333 345 341 304 307 301 295 290 294 302 281 279
281 276 279 286 310 293 266 265 256 238 228 230 234 237 246 237 232 193 183 90 14 352 357 129 189 199 115 149 219 5 309 292 302 311 1 317 302 311 316 318 315 317 280 267 272 280 299 301 317
274 270 279 293 300 287 271 269 255 232 219 215 225 237 249 246 226 205 160 57 329 282 278 262 240 245 222 201 221 204 240 277 275 283 277 309 296 287 283 294 318 318 305 295 290 296 294 296 335
270 263 282 291 305 267 276 281 241 202 206 214 224 229 239 239 239 246 226 283 266 249 240 255 245 260 243 210 184 106 317 290 287 271 251 277 290 282 268 277 297 299 290 282 285 261 274 271 284
267 283 286 284 286 274 248 286 257 198 201 215 233 243 251 254 257 267 280 267 253 238 233 208 214 250 252 217 190 197 235 254 261 259 251 256 286 290 283 270 277 279 283 273 279 284 273 247 261
276 302 282 266 261 276 246 252 276 176 212 226 227 239 248 238 242 281 298 296 292 219 185 182 227 249 265 237 216 222 238 251 262 263 262 272 269 264 269 261 256 261 256 249 261 289 281 261 250
294 287 273 246 243 261 230 219 273 208 218 222 200 204 223 3 332 318 351 335 298 190 132 218 256 257 253 247 236 227 229 243 253 260 254 259 249 241 237 254 258 259 253 245 239 252 253 262 261
282 291 340 318 242 250 231 221 254 248 198 165 158 139 81 61 25 11 354 319 320 325 193 241 260 280 272 262 256 245 237 238 239 243 243 250 253 251 227 233 251 256 250 241 234 232 236 239 246
243 246 195 248 264 289 280 235 248 62 83 79 90 99 57 26 11 7 345 337 349 322 284 274 278 283 279 278 269 254 250 244 242 242 244 246 244 245 229 217 237 253 253 248 233 231 237 235 236
235 239 276 283 284 274 250 239 280 33 52 50 63 49 333 332 4 1 344 332 337 331 330 313 291 285 278 279 279 268 260 255 252 251 257 254 242 242 227 217 220 241 250 246 238 230 234 235 235
262 278 248 229 270 277 268 243 251 314 325 6 41 323 311 330 1 351 338 332 340 344 344 337 302 284 285 284 277 274 263 261 253 250 252 258 250 236 223 223 224 233 239 232 227 243 240 231 237
190 223 236 247 251 257 283 278 3 154 162 321 303 325 327 340 344 334 326 325 335 347 345 334 321 305 297 292 290 286 264 257 256 250 251 258 256 236 219 220 223 227 233 226 220 229 234 235 245
220 211 201 226 261 243 262 273 338 50 70 38 358 0 2 351 336 326 324 333 331 335 333 327 328 321 311 309 306 292 262 244 252 258 261 257 254 243 224 223 225 229 235 232 225 228 228 230 238